AirNav   Everest Fuels
 
 776 users online  

83PN WPXI-TV Television Hill Heliport
Pittsburgh, Pennsylvania, USA

GOING TO PITTSBURGH?


FAA INFORMATION EFFECTIVE 18 JUNE 2020

Location

FAA Identifier: 83PN
Lat/Long: 40-27-47.9480N 080-00-16.6920W
40-27.799133N 080-00.278200W
40.4633189,-80.0046367
(estimated)
Elevation: 1182 ft. / 360 m (estimated)
Variation: 08W (1985)
From city: 2 miles NW of PITTSBURGH, PA
Time zone: UTC -4 (UTC -5 during Standard Time)
Zip code: 15214

Heliport Operations

Heliport use: Private use. Permission required prior to landing
Activation date: 02/1982
Control tower: no
ARTCC: CLEVELAND CENTER
FSS: ALTOONA FLIGHT SERVICE STATION
Attendance: CONTINUOUS
Wind indicator: yes
Segmented circle: no

Heliport Communications

WX AWOS-A at 42PN (0.4 nm S): PHONE 412-442-2213
WX ASOS at AGC (7 nm SE): 120.55 (412-466-8968)
WX ASOS at PIT (11 nm W): PHONE 412-472-0145
WX AWOS-3 at FWQ (17 nm SE): 118.475 (724-379-5815)
WX AWOS-3PT at BTP (19 nm N): 121.450 (724-586-6434)

Nearby radio navigation aids

VOR radial/distance  VOR name  Freq  Var
AGCr017/11.2ALLEGHENY VOR/DME110.0009W
EWCr165/23.7ELLWOOD CITY VOR/DME115.8008W
HLGr072/28.5WHEELING VOR/DME112.2007W

 
NDB name  Hdg/Dist  Freq  Var  ID
CASTLE160/38.427209WUCP ..- -.-. .--.

Heliport Services

Runway Information

Helipad H1

Dimensions: 56 x 48 ft. / 17 x 15 m
Surface: asphalt, in fair condition
Latitude: 40-27.799133N
Longitude: 080-00.278200W
Elevation: 1182.0 ft.
Traffic pattern: leftleft
Markings: none, in fair condition

Heliport Ownership and Management from official FAA records

Ownership: Privately-owned
Owner: WPXI-TV INC
11 TELEVISION HILL
PITTSBURGH, PA 15230
Phone 412-237-1100
Manager: ANNETTE PARKS
4145 EVERGREEN ROAD
PITTSBURGH, PA 15214
Phone 412-237-1100

Additional Remarks

A52-H1 BLDG & ANTENNA NORTH AND LIGHT POLES NORTH & WEST OF HELIPAD.
FOR CD CTC PITTSBURGH APCH AT 412-472-5591

Instrument Procedures

There are no published instrument procedures at 83PN.

Some nearby airports with instrument procedures:

KAGC - Allegheny County Airport (7 nm SE)
KPIT - Pittsburgh International Airport (11 nm W)
G05 - Finleyville Airpark (13 nm S)
KFWQ - Rostraver Airport (17 nm SE)
KBTP - Pittsburgh/Butler Regional Airport (19 nm N)
 
Loc | Ops | Rwys | IFR | FBO | Links
Com | Nav | Svcs | Stats | Notes
Area around 83PN (WPXI-TV Television Hill Heliport)
 
Road maps at: MapQuest Bing Google
 
Aerial photo
No photo
 
Sectional chart

 
Airport distance calculator
Flying to WPXI-TV Television Hill Heliport? Find the distance to fly.

From to 83PN

Sunrise and sunset
Times for 05-Jul-2020
 Local
(UTC-4)
 Zulu
(UTC)
Morning civil twilight05:2409:24
Sunrise05:5709:57
Sunset20:5200:52
Evening civil twilight21:2501:25

Current date and time
Zulu (UTC)  06-Jul-2020 02:57:21
Local (UTC-4)  05-Jul-2020 22:57:21
 
METAR
KAGC 
8nm SE 
060253Z 11003KT 10SM CLR 27/17 A3000 RMK AO2 SLP151 T02670167 53015
KPIT 
12nm W 
060251Z 27006KT 10SM FEW100 FEW250 26/17 A3000 RMK AO2 SLP153 T02560172 51015
KP53 
17nm SE 
060156Z AUTO 00000KT 22/18 A2994 RMK AO1 SLP137 T02220183
KBTP 
18nm N 
060156Z AUTO 10005KT 10SM BKN060 27/19 A3001 RMK AO2 SLPNO T02720189 PNO $
TAF
KAGC 
8nm SE 
051721Z 0518/0618 VRB02KT P6SM SCT060 FM061500 28003KT P6SM SCT250
KPIT 
12nm W 
052057Z 0521/0624 29006KT P6SM SCT060 FM061500 28003KT P6SM SCT250
NOTAMs
Click for the latest NOTAMs
NOTAMs are issued by the DoD/FAA and will open in a separate window not controlled by AirNav.

 

 
 

Would you like to see your business listed on this page?

 If your business provides an interesting product or service to pilots, flight crews, aircraft, or users of the WPXI-TV Television Hill Heliport, you should consider listing it here.  To start the listing process, click on the button below
 
Add a business
 

Other Pages about WPXI-TV Television Hill Heliport

Update a link
 
Copyright © AirNav, LLC. All rights reserved. Privacy Policy  Contact